TimeCST,TemperatureF,Dew PointF,Humidity,Sea Level PressureIn,VisibilityMPH,Wind Direction,Wind SpeedMPH,Gust SpeedMPH,PrecipitationIn,Events,Conditions,WindDirDegrees,DateUTC
12:53 AM,34.0,14.0,44,29.89,10.0,SSW,4.6,-,N/A,,Clear,200,2012-12-13 06:53:00
1:53 AM,28.9,12.9,51,29.91,10.0,South,3.5,-,N/A,,Clear,170,2012-12-13 07:53:00
2:53 AM,23.0,10.9,60,29.94,10.0,Calm,Calm,-,N/A,,Clear,0,2012-12-13 08:53:00
3:53 AM,19.0,10.0,68,29.95,10.0,Calm,Calm,-,N/A,,Clear,0,2012-12-13 09:53:00
4:53 AM,21.0,12.0,68,29.96,10.0,Calm,Calm,-,N/A,,Clear,0,2012-12-13 10:53:00
5:53 AM,18.0,10.0,71,29.99,10.0,Calm,Calm,-,N/A,,Clear,0,2012-12-13 11:53:00
6:53 AM,18.0,10.0,71,30.03,10.0,Calm,Calm,-,N/A,,Clear,0,2012-12-13 12:53:00
7:53 AM,18.0,12.0,78,30.04,10.0,NW,3.5,-,N/A,,Clear,310,2012-12-13 13:53:00
8:53 AM,24.1,14.0,65,30.06,10.0,NW,4.6,-,N/A,,Clear,310,2012-12-13 14:53:00
9:53 AM,32.0,17.1,54,30.08,10.0,Calm,Calm,-,N/A,,Clear,0,2012-12-13 15:53:00
10:53 AM,43.0,19.9,40,30.06,10.0,North,4.6,-,N/A,,Clear,360,2012-12-13 16:53:00
11:53 AM,46.9,24.1,41,30.06,10.0,North,8.1,-,N/A,,Clear,350,2012-12-13 17:53:00
12:53 PM,46.0,25.0,44,30.06,10.0,NNW,4.6,-,N/A,,Clear,330,2012-12-13 18:53:00
1:53 PM,46.9,25.0,42,30.05,10.0,NNW,6.9,-,N/A,,Clear,330,2012-12-13 19:53:00
2:53 PM,48.9,25.0,39,30.05,10.0,NNW,5.8,-,N/A,,Clear,330,2012-12-13 20:53:00
3:53 PM,46.9,25.0,42,30.06,10.0,Calm,Calm,-,N/A,,Clear,0,2012-12-13 21:53:00
6:53 PM,28.4,21.2,74,30.01,10.0,Calm,Calm,-,N/A,,Clear,0,2012-12-14 00:53:00
7:53 PM,24.1,18.0,77,30.11,10.0,Calm,Calm,-,N/A,,Clear,0,2012-12-14 01:53:00
8:53 PM,21.0,14.0,74,30.10,10.0,Calm,Calm,-,N/A,,Clear,0,2012-12-14 02:53:00
9:53 PM,19.0,12.9,77,30.09,10.0,Calm,Calm,-,N/A,,Clear,0,2012-12-14 03:53:00
10:53 PM,16.0,10.9,81,30.07,10.0,Calm,Calm,-,N/A,,Clear,0,2012-12-14 04:53:00
11:53 PM,19.0,12.9,77,30.06,10.0,Calm,Calm,-,N/A,,Clear,0,2012-12-14 05:53:00